Showing default

CHECKMATE 3, 56169

Orbit data source: Space-Track

CHECKMATE 3, 56169 is a payload satellite owned by SDA (US) in LEO that was launched on Sun, 02 Apr 2023 UTC via an FALCON 9 launch vehicle from the Air Force Western Test Range (AFWTR). Payloads include a variety of satellites, spacecraft, and rockets equipped with specific instruments for various scientific and technological missions. These include communications satellites like Starlink; space stations such as the ISS; scientific satellites like the Hubble; Earth observation satellites from companies like Planet Labs, Umbra, and HawkEye 360; GPS; miniature CubeSats for education and research; and military/defense satellites.

Loading next visibility...
CHECKMATE 3 details
Identifier
56169, 2023-050H
Orbit
LEO
Last TLE update17 hours ago
Origin
Flag of USSDA (US)
ManufacturerYork Space Sys
MissionOperational Defense Communications
Bus & MotorS-CLASS, Unknown motor
Mass~300 kg wet, ~300 kg dry
Launch date (UTC)
2023-04-02 (2 years ago)
Launch vehicle
FALCON 9
Launch site
Air Force Western Test Range (AFWTR)
Object type
Payload
Rocket body
Debris
Shape & HBRBox + 1 Pan, 2 m
Radar Cross Section0.945 m², Large (>1 m²)

Expand to show TLE details & history

TLE from 17 hours ago
0 CHECKMATE 3
1 56169U 23050H   25014.87639857  .00000108  00000-0  85992-4 0  9998
2 56169  81.0011 208.5759 0006264 267.3935  92.6504 13.85059282 90366
Epoch: 2025-01-14T21:02Z
Definitive object data (Epoch: 2025-01-14T21:02:00.836Z)
Latitude-0.00003°
Longitude138.49561°
Altitude949.069 km
Speed7.377 km/s
True Right ascension13h 54m 18s
True Declination0° 00' 00"
Sunlit
Object was in daylight at TLE epoch
Visualization TLE readout
Latitude30.84779°
Longitude143.19576°
Altitude952.525 km
Speed7.377 km/s
Apparent Right ascension11h 38m 51s
Apparent Declination-9° 25' 08"
Sunlit
Object is in daylight
Visualization observer readout
Local Sidereal Time15:11:56
Azimuth237.481° WSW
Elevation20.334°
Doppler factor1
Orbital elements
Apogee altitude947.802 km
Perigee altitude938.63 km
Semi-major axis7,321.353 km
Eccentricity0.0006264
Inclination81.0011°
RAAN208.5759°
Arg. of periapsis267.3935°
True anomaly92.7221°
Mean anomaly92.6504°
Eccentric anomaly92.68625°
Mean motion3.46462 °/min
BSTAR0.000085992
Orbital period103.91 mins
Loading maneuver chart data...
Loading historical data...
Loading historical data...
Loading historical data...
Loading historical data...
Loading historical data...
Loading historical data...
Loading historical data...

CHECKMATE 3 Visibility forecast

Observer location: undefined°, undefined

Span
Click to sort rows by Start time (UTC) header in descending order
Start Az.
Max El. time (UTC)
Max El. Az.
Max El.
End time (UTC)
End Az.
8 mins2025-01-15 14:31:14.053Z237.214° WSW2025-01-15 14:34:14.053Z280.297° WNW28.988°2025-01-15 14:39:14.053Z347.105° N
9 mins2025-01-15 23:38:14.053Z19.832° NNE2025-01-15 23:42:14.053Z77.483° E28.267°2025-01-15 23:47:14.053Z134.228° SE
9 mins2025-01-16 01:23:14.053Z322.501° NNW2025-01-16 01:27:14.053Z262.741° W29.705°2025-01-16 01:32:14.053Z206.624° SW
10 mins2025-01-16 13:01:14.053Z166.297° S2025-01-16 13:06:14.053Z87.26° E38.826°2025-01-16 13:11:14.053Z20.995° NNE
|